OK1MNP-5 Weather Reports


time (UTC)temp
C
wind
direction
speed
KPH
gust
KPH
rain 1hr
cm
rain 24hr
cm
rain mn
cm
humidity
%
barometer
mb
20260905165756 -17 0 0.0 0.0 0.00 0.00 0.00 1014.3
20260905165007 -17 0 0.0 0.0 0.00 0.00 0.00 1014.2
20260905164218 -17 0 0.0 0.0 0.00 0.00 0.00 1014.1
20260905163429 -17 0 0.0 0.0 0.00 0.00 0.00 1013.8
20260905162637 -17 0 0.0 0.0 0.00 0.00 0.00 1013.8
20260905161846 -17 0 0.0 0.0 0.00 0.00 0.00 1013.8
20260905161058 -17 0 0.0 0.0 0.00 0.00 0.00 1013.7
20260905160248 -17 0 0.0 0.0 0.00 0.00 0.00 1013.6
20260905155501 -17 0 0.0 0.0 0.00 0.00 0.00 1013.6
20260905154713 -17 0 0.0 0.0 0.00 0.00 0.00 1013.6
20260905153926 -17 0 0.0 0.0 0.00 0.00 0.00 1013.6
20260905153133 -17 0 0.0 0.0 0.00 0.00 0.00 1013.5
20260905152343 -17 0 0.0 0.0 0.00 0.00 0.00 1013.4
20260905151554 -17 0 0.0 0.0 0.00 0.00 0.00 1013.4
20260905150805 -17 0 0.0 0.0 0.00 0.00 0.00 1013.3
20260905150018 -17 0 0.0 0.0 0.00 0.00 0.00 1013.3
20260905145229 -17 0 0.0 0.0 0.00 0.00 0.00 1013.1
20260905144439 -17 0 0.0 0.0 0.00 0.00 0.00 1013.0
20260905143652 -17 0 0.0 0.0 0.00 0.00 0.00 1013.1
20260905142859 -17 0 0.0 0.0 0.00 0.00 0.00 1013.0
20260905142112 -17 0 0.0 0.0 0.00 0.00 0.00 1012.9
20260905141325 -17 0 0.0 0.0 0.00 0.00 0.00 1012.9
20260905140536 -17 0 0.0 0.0 0.00 0.00 0.00 1013.0
20260905135748 -17 0 0.0 0.0 0.00 0.00 0.00 1013.0
20260905135000 -17 0 0.0 0.0 0.00 0.00 0.00 1013.0
20260905134213 -17 0 0.0 0.0 0.00 0.00 0.00 1012.9
20260905133424 -17 0 0.0 0.0 0.00 0.00 0.00 1012.8
20260905132637 -17 0 0.0 0.0 0.00 0.00 0.00 1013.0
20260905131847 -17 0 0.0 0.0 0.00 0.00 0.00 1012.9
20260905131059 -17 0 0.0 0.0 0.00 0.00 0.00 1013.1
20260905130312 -17 0 0.0 0.0 0.00 0.00 0.00 1013.1
20260905125523 -17 0 0.0 0.0 0.00 0.00 0.00 1013.2
20260905124733 -17 0 0.0 0.0 0.00 0.00 0.00 1013.2
20260905123947 -17 0 0.0 0.0 0.00 0.00 0.00 1013.3
20260905123159 -17 0 0.0 0.0 0.00 0.00 0.00 1013.4
20260905122411 -17 0 0.0 0.0 0.00 0.00 0.00 1013.2
20260905121624 -17 0 0.0 0.0 0.00 0.00 0.00 1013.3
20260905120837 -17 0 0.0 0.0 0.00 0.00 0.00 1013.2
20260905120048 -17 0 0.0 0.0 0.00 0.00 0.00 1013.2
20260905115300 -17 0 0.0 0.0 0.00 0.00 0.00 1013.1
20260905114512 -17 0 0.0 0.0 0.00 0.00 0.00 1013.1
20260905113724 -17 0 0.0 0.0 0.00 0.00 0.00 1013.1
20260905112936 -17 0 0.0 0.0 0.00 0.00 0.00 1013.1
20260905112149 -17 0 0.0 0.0 0.00 0.00 0.00 1013.0
20260905111402 -17 0 0.0 0.0 0.00 0.00 0.00 1013.0
20260905110614 -17 0 0.0 0.0 0.00 0.00 0.00 1012.8
20260905105827 -17 0 0.0 0.0 0.00 0.00 0.00 1012.9
20260905105038 -17 0 0.0 0.0 0.00 0.00 0.00 1012.8
20260905104251 -17 0 0.0 0.0 0.00 0.00 0.00 1012.7
20260905103504 -17 0 0.0 0.0 0.00 0.00 0.00 1012.7
20260905102715 -17 0 0.0 0.0 0.00 0.00 0.00 1012.4
20260905101928 -17 0 0.0 0.0 0.00 0.00 0.00 1012.3
20260905101139 -17 0 0.0 0.0 0.00 0.00 0.00 1012.1
20260905100353 -17 0 0.0 0.0 0.00 0.00 0.00 1011.6
20260905095604 43 0 0.0 0.0 0.00 0.00 0.00 1010.5
20260905094817 43 0 0.0 0.0 0.00 0.00 0.00 1010.5
20260905094030 -17 0 0.0 0.0 0.00 0.00 0.00 1011.5
20260905093241 -17 0 0.0 0.0 0.00 0.00 0.00 1012.0
20260905092452 38 0 0.0 0.0 0.00 0.00 0.00 1011.1
20260905091659 -17 0 0.0 0.0 0.00 0.00 0.00 1011.8
20260905090911 43 0 0.0 0.0 0.00 0.00 0.00 1010.5
20260905090124 45 0 0.0 0.0 0.00 0.00 0.00 1010.3
20260905085336 -17 0 0.0 0.0 0.00 0.00 0.00 1012.0
20260905084549 -17 0 0.0 0.0 0.00 0.00 0.00 1011.3
20260905083801 -17 0 0.0 0.0 0.00 0.00 0.00 1011.0
20260905083013 -17 0 0.0 0.0 0.00 0.00 0.00 1011.6
20260905082226 -17 0 0.0 0.0 0.00 0.00 0.00 1011.4
20260905081438 -17 0 0.0 0.0 0.00 0.00 0.00 1011.5
20260905080651 -17 0 0.0 0.0 0.00 0.00 0.00 1011.1
20260905075900 -17 0 0.0 0.0 0.00 0.00 0.00 1011.4
20260905075112 -17 0 0.0 0.0 0.00 0.00 0.00 1012.0
20260905074325 -17 0 0.0 0.0 0.00 0.00 0.00 1012.1
20260905073537 -17 0 0.0 0.0 0.00 0.00 0.00 1011.9
20260905072747 -17 0 0.0 0.0 0.00 0.00 0.00 1011.1
20260905072000 -17 0 0.0 0.0 0.00 0.00 0.00 1011.4
20260905071213 -17 0 0.0 0.0 0.00 0.00 0.00 1011.8
20260905070425 -17 0 0.0 0.0 0.00 0.00 0.00 1011.2
20260905065638 -17 0 0.0 0.0 0.00 0.00 0.00 1011.3
20260905064850 -17 0 0.0 0.0 0.00 0.00 0.00 1012.2
20260905064103 -17 0 0.0 0.0 0.00 0.00 0.00 1012.5
20260905063316 -17 0 0.0 0.0 0.00 0.00 0.00 1012.3
20260905062528 -17 0 0.0 0.0 0.00 0.00 0.00 1012.2
20260905061739 -17 0 0.0 0.0 0.00 0.00 0.00 1012.5
20260905060951 -17 0 0.0 0.0 0.00 0.00 0.00 1012.5
20260905060203 -17 0 0.0 0.0 0.00 0.00 0.00 1012.4
20260905055416 -17 0 0.0 0.0 0.00 0.00 0.00 1012.3
20260905054628 -17 0 0.0 0.0 0.00 0.00 0.00 1012.3
20260905053841 -17 0 0.0 0.0 0.00 0.00 0.00 1011.8
20260905053053 -17 0 0.0 0.0 0.00 0.00 0.00 1011.7
20260905052306 -17 0 0.0 0.0 0.00 0.00 0.00 1011.9
20260905051518 -17 0 0.0 0.0 0.00 0.00 0.00 1011.7
20260905050730 -17 0 0.0 0.0 0.00 0.00 0.00 1010.3
20260905045942 -17 0 0.0 0.0 0.00 0.00 0.00 1010.7
20260905045155 -17 0 0.0 0.0 0.00 0.00 0.00 1011.1
20260905044408 -17 0 0.0 0.0 0.00 0.00 0.00 1011.2
20260905043621 -17 0 0.0 0.0 0.00 0.00 0.00 1011.3
20260905042834 -17 0 0.0 0.0 0.00 0.00 0.00 1011.4
20260905042046 -17 0 0.0 0.0 0.00 0.00 0.00 1011.3
20260905041258 -17 0 0.0 0.0 0.00 0.00 0.00 1010.8
20260905040510 -17 0 0.0 0.0 0.00 0.00 0.00 1010.4
20260905035723 -17 0 0.0 0.0 0.00 0.00 0.00 1010.6
20260905034936 -17 0 0.0 0.0 0.00 0.00 0.00 1011.1
20260905034149 -17 0 0.0 0.0 0.00 0.00 0.00 1011.0
20260905033402 -17 0 0.0 0.0 0.00 0.00 0.00 1010.6
20260905032613 -17 0 0.0 0.0 0.00 0.00 0.00 1010.1
20260905031825 -17 0 0.0 0.0 0.00 0.00 0.00 1009.9
20260905031038 -17 0 0.0 0.0 0.00 0.00 0.00 1009.7
20260905030251 -17 0 0.0 0.0 0.00 0.00 0.00 1009.9
20260905025503 -17 0 0.0 0.0 0.00 0.00 0.00 1009.9
20260905024716 -17 0 0.0 0.0 0.00 0.00 0.00 1009.9
20260905023928 -17 0 0.0 0.0 0.00 0.00 0.00 1010.0
20260905023140 -17 0 0.0 0.0 0.00 0.00 0.00 1009.6
20260905022353 -17 0 0.0 0.0 0.00 0.00 0.00 1009.8
20260905021605 -17 0 0.0 0.0 0.00 0.00 0.00 1010.0
20260905020816 -17 0 0.0 0.0 0.00 0.00 0.00 1009.6
20260905020028 -17 0 0.0 0.0 0.00 0.00 0.00 1009.4
20260905015240 -17 0 0.0 0.0 0.00 0.00 0.00 1009.4
20260905014452 -17 0 0.0 0.0 0.00 0.00 0.00 1009.4
20260905013704 -17 0 0.0 0.0 0.00 0.00 0.00 1009.2
20260905012914 -17 0 0.0 0.0 0.00 0.00 0.00 1009.1
20260905012127 -17 0 0.0 0.0 0.00 0.00 0.00 1009.1
20260905011340 -17 0 0.0 0.0 0.00 0.00 0.00 1009.3
20260905010551 -17 0 0.0 0.0 0.00 0.00 0.00 1008.9
20260905005803 -17 0 0.0 0.0 0.00 0.00 0.00 1008.9
20260905005016 -17 0 0.0 0.0 0.00 0.00 0.00 1009.0
20260905004228 -17 0 0.0 0.0 0.00 0.00 0.00 1008.9
20260905003441 -17 0 0.0 0.0 0.00 0.00 0.00 1008.8
20260905002653 -17 0 0.0 0.0 0.00 0.00 0.00 1008.5
20260905001906 -17 0 0.0 0.0 0.00 0.00 0.00 1008.5
20260905001118 -17 0 0.0 0.0 0.00 0.00 0.00 1008.3
20260905000329 -17 0 0.0 0.0 0.00 0.00 0.00 1008.4
20260904235541 -17 0 0.0 0.0 0.00 0.00 0.00 1007.9
20260904234754 -17 0 0.0 0.0 0.00 0.00 0.00 1007.1
20260904234004 -17 0 0.0 0.0 0.00 0.00 0.00 1007.1
20260904233215 -17 0 0.0 0.0 0.00 0.00 0.00 1007.0
20260904232428 -17 0 0.0 0.0 0.00 0.00 0.00 1007.0
20260904231641 -17 0 0.0 0.0 0.00 0.00 0.00 1006.6
20260904230854 -17 0 0.0 0.0 0.00 0.00 0.00 1006.3
20260904230105 -17 0 0.0 0.0 0.00 0.00 0.00 1005.9
20260904225317 -17 0 0.0 0.0 0.00 0.00 0.00 1005.6
20260904224530 -17 0 0.0 0.0 0.00 0.00 0.00 1005.4
20260904223732 -17 0 0.0 0.0 0.00 0.00 0.00 1004.9
20260904222942 -17 0 0.0 0.0 0.00 0.00 0.00 1004.9
20260904222154 -17 0 0.0 0.0 0.00 0.00 0.00 1005.0
20260904221404 -17 0 0.0 0.0 0.00 0.00 0.00 1005.0
20260904220616 -17 0 0.0 0.0 0.00 0.00 0.00 1004.9
20260904215827 -17 0 0.0 0.0 0.00 0.00 0.00 1004.7
20260904215038 -17 0 0.0 0.0 0.00 0.00 0.00 1004.6
20260904214247 -17 0 0.0 0.0 0.00 0.00 0.00 1004.6
20260904213455 -17 0 0.0 0.0 0.00 0.00 0.00 1004.2
20260904212707 -17 0 0.0 0.0 0.00 0.00 0.00 1004.1
20260904211919 -17 0 0.0 0.0 0.00 0.00 0.00 1004.0
20260904211131 -17 0 0.0 0.0 0.00 0.00 0.00 1003.9
20260904210342 -17 0 0.0 0.0 0.00 0.00 0.00 1004.0
20260904205554 -17 0 0.0 0.0 0.00 0.00 0.00 1004.0
20260904204802 -17 0 0.0 0.0 0.00 0.00 0.00 1004.0
20260904204015 -17 0 0.0 0.0 0.00 0.00 0.00 1004.1
20260904203224 -17 0 0.0 0.0 0.00 0.00 0.00 1004.2
20260904202435 -17 0 0.0 0.0 0.00 0.00 0.00 1004.3
20260904201647 -17 0 0.0 0.0 0.00 0.00 0.00 1004.3
20260904200858 -17 0 0.0 0.0 0.00 0.00 0.00 1004.3
20260904200110 -17 0 0.0 0.0 0.00 0.00 0.00 1004.4
20260904195321 -17 0 0.0 0.0 0.00 0.00 0.00 1004.5
20260904194534 -17 0 0.0 0.0 0.00 0.00 0.00 1004.5
20260904193746 -17 0 0.0 0.0 0.00 0.00 0.00 1004.4
20260904192957 -17 0 0.0 0.0 0.00 0.00 0.00 1004.4
20260904192209 -17 0 0.0 0.0 0.00 0.00 0.00 1004.4
20260904191421 -17 0 0.0 0.0 0.00 0.00 0.00 1004.4
20260904190633 -17 0 0.0 0.0 0.00 0.00 0.00 1004.4
20260904185843 -17 0 0.0 0.0 0.00 0.00 0.00 1004.4
20260904185054 -17 0 0.0 0.0 0.00 0.00 0.00 1004.3
20260904184306 -17 0 0.0 0.0 0.00 0.00 0.00 1004.3
20260904183518 -17 0 0.0 0.0 0.00 0.00 0.00 1004.3
20260904182728 -17 0 0.0 0.0 0.00 0.00 0.00 1004.5
20260904181940 -17 0 0.0 0.0 0.00 0.00 0.00 1004.5
20260904181153 -17 0 0.0 0.0 0.00 0.00 0.00 1004.6
20260904180404 -17 0 0.0 0.0 0.00 0.00 0.00 1004.5
20260904175615 -17 0 0.0 0.0 0.00 0.00 0.00 1004.4
20260904174831 -17 0 0.0 0.0 0.00 0.00 0.00 1004.5
20260904174039 -17 0 0.0 0.0 0.00 0.00 0.00 1004.5
20260904173251 -17 0 0.0 0.0 0.00 0.00 0.00 1004.5
20260904172503 -17 0 0.0 0.0 0.00 0.00 0.00 1004.4
20260904171714 -17 0 0.0 0.0 0.00 0.00 0.00 1004.4
20260904170926 -17 0 0.0 0.0 0.00 0.00 0.00 1004.2